Wind_Speed
2 3 4 5 3 5 5 7 2 4 3 2 3 3 4 2 5 4 4 20 20 23 25 29 30 30 32 33 34 39 43 44 42 41 40 40 40 38 38 36 33 29 28 26 23 22 23 26 26
3 3 3 3 4 1 6 4 8 9 4 8 5 2 3 5 2 2 6 21 19 20 24 29 31 31 32 34 34 38 43 44 43 42 40 39 39 38 38 35 31 29 27 26 24 23 24 27 27
2 2 3 3 4 6 6 5 6 4 3 3 3 1 3 4 2 5 11 27 20 22 22 27 30 32 33 36 35 38 44 44 44 42 39 38 38 38 37 34 30 29 27 26 26 26 26 27 27
1 5 4 4 9 8 6 4 5 8 7 1 1 8 6 6 2 9 17 26 24 23 23 24 27 31 35 37 37 37 43 45 44 42 39 38 37 37 36 33 30 29 28 28 28 30 29 27 27
4 3 2 4 8 7 5 7 6 8 3 5 2 7 4 4 10 12 20 27 25 23 22 23 26 29 34 38 39 38 40 44 44 42 39 37 38 37 35 32 29 28 29 29 30 32 31 26 25
2 3 1 7 8 6 6 10 5 12 8 7 4 3 6 9 11 17 24 25 22 20 20 21 22 27 30 38 40 39 40 42 43 41 38 37 38 37 34 32 29 28 29 31 32 33 31 26 22
4 2 6 4 4 8 15 7 11 10 10 9 5 4 4 8 5 14 23 21 19 18 19 20 25 29 32 36 40 39 39 40 40 39 38 38 38 36 34 32 30 29 30 32 34 33 30 26 20
4 3 4 5 12 21 13 12 4 9 8 4 6 6 3 4 10 13 15 17 16 16 17 22 25 31 31 34 38 37 37 38 38 38 38 38 37 36 33 31 29 29 31 33 35 32 28 24 21
5 3 17 8 14 20 1 3 3 3 6 2 4 3 4 6 16 17 11 8 12 14 16 24 25 28 32 35 34 34 34 36 36 37 38 37 37 35 33 32 30 31 33 34 34 31 27 22 21
6 8 15 15 8 15 5 7 5 5 3 2 9 8 2 8 18 13 12 11 13 17 20 24 25 27 29 37 35 34 32 34 36 38 38 38 37 35 34 32 30 32 33 33 32 30 27 23 24
7 24 22 21 7 8 11 8 6 8 18 15 15 10 5 6 11 15 17 21 29 23 23 26 27 28 29 38 39 34 30 31 35 37 39 39 38 35 32 30 28 30 32 33 32 30 27 24 25
12 21 18 22 18 13 15 8 17 15 19 13 15 9 4 8 9 13 17 23 25 28 32 31 30 31 30 29 39 39 31 31 31 36 39 40 39 37 35 32 30 31 33 34 34 32 28 24 24
18 20 22 22 21 20 16 23 25 35 21 18 19 20 22 11 10 22 28 29 30 25 29 36 36 36 34 30 31 41 34 33 32 34 39 42 36 33 37 34 33 35 35 36 34 33 30 26 26
6 14 22 24 22 13 16 25 16 32 11 20 19 22 25 17 14 23 24 25 26 33 32 35 38 36 37 35 34 36 41 36 35 34 37 43 39 35 36 32 33 32 36 37 35 35 33 29 27
24 25 26 31 7 8 3 31 37 29 24 26 18 20 21 19 19 20 31 33 36 38 39 36 39 35 37 36 37 34 35 41 40 37 37 42 38 40 41 36 35 33 35 35 34 33 31 28 27
17 18 15 25 17 21 14 36 47 18 19 29 27 24 25 27 18 24 32 31 34 37 31 40 39 40 40 37 38 37 36 37 41 39 40 42 41 40 39 35 33 37 37 36 35 33 32 31 29
22 24 30 33 29 11 18 33 35 7 17 18 18 22 23 22 19 22 29 37 40 41 38 40 43 42 43 43 38 40 39 38 38 39 40 44 44 45 40 35 36 39 42 38 37 36 34 33 30
23 23 25 26 32 19 29 40 30 33 25 19 19 18 20 19 22 25 30 33 38 42 42 44 42 43 45 41 36 35 35 37 35 37 39 42 43 44 39 36 38 41 41 41 41 40 33 34 31
20 21 30 33 25 21 27 32 27 27 25 26 24 23 21 19 14 16 23 28 31 35 37 41 37 42 41 37 34 32 34 35 35 37 39 42 43 43 43 36 38 41 45 42 45 40 36 30 31
28 31 34 25 24 26 30 35 31 30 25 24 26 24 25 18 10 11 18 24 27 30 34 38 39 43 46 42 41 39 40 41 41 42 40 41 43 45 45 40 39 42 40 37 44 41 31 24 38
20 19 27 33 31 27 25 33 37 30 29 27 26 25 23 24 23 19 20 23 27 26 30 33 39 42 46 44 40 36 33 30 32 35 34 41 47 50 50 45 41 44 39 40 42 43 41 28 35
25 18 24 29 24 21 7 19 33 23 28 22 27 28 25 25 24 22 22 21 25 28 35 35 40 42 44 46 41 41 36 29 32 35 38 39 46 47 48 45 46 47 41 39 45 46 43 35 34
20 22 26 29 24 21 28 10 9 6 14 15 22 21 22 24 23 26 25 21 25 24 30 33 36 39 41 46 44 43 39 39 39 38 39 40 42 44 47 45 46 45 43 39 42 44 45 44 32
16 21 23 16 13 17 29 13 11 8 4 8 5 11 10 9 10 11 6 10 5 4 18 26 30 33 37 42 42 43 43 37 34 36 35 36 35 39 46 48 47 46 44 42 46 48 47 46 38
11 15 5 4 7 14 22 15 18 3 8 10 9 10 11 12 13 14 14 10 10 12 3 20 26 27 34 39 38 39 38 37 37 37 38 33 32 34 41 45 44 46 48 45 45 45 47 47 45
15 11 6 7 4 11 14 12 5 10 10 13 11 10 15 15 14 15 13 12 12 17 19 18 12 16 27 31 35 36 37 35 36 36 35 34 35 36 38 43 40 42 43 44 44 44 46 44 44
3 4 10 9 8 3 2 7 10 8 12 14 14 15 16 16 17 17 17 15 19 22 25 23 21 21 15 19 28 30 31 32 34 36 40 37 34 33 31 38 37 37 37 40 43 40 40 42 44
7 8 7 4 2 3 6 2 4 9 9 12 16 17 17 18 19 18 18 18 25 30 28 33 30 28 24 23 16 14 22 25 26 29 34 33 40 41 39 34 27 34 37 39 41 38 37 37 39
11 6 7 5 4 4 3 3 6 6 11 12 14 14 18 17 19 18 17 22 29 31 33 33 34 35 33 30 26 27 19 18 15 17 19 25 28 31 33 33 38 36 41 41 39 39 35 36 36
10 11 9 5 6 1 5 3 3 6 11 11 12 11 14 15 19 18 19 22 27 31 33 35 33 31 31 33 32 32 32 27 27 24 20 21 19 18 21 28 30 33 36 39 42 36 31 33 36
Wind_Direction
25 358 349 21 39 60 268 258 259 248 246 160 265 169 225 218 171 216 179 166 164 176 183 186 192 190 182 177 172 170 171 166 161 158 158 155 153 153 150 149 147 144 141 138 137 135 131 132 131
46 356 31 85 97 67 261 240 230 223 224 331 349 277 258 250 227 129 140 173 176 185 186 188 194 194 185 179 173 171 172 168 163 161 160 158 156 155 152 152 151 143 145 143 138 135 135 136 134
31 44 85 114 145 207 237 229 263 308 286 288 301 355 256 241 260 192 198 185 190 186 191 196 197 198 190 181 175 172 172 170 166 164 164 162 159 157 155 154 151 149 148 143 138 138 139 139 136
79 18 45 128 225 246 215 298 329 332 322 326 105 300 300 230 223 207 180 178 178 184 190 199 204 201 193 184 176 173 172 171 168 167 166 166 162 160 159 156 153 152 148 144 143 142 141 141 138
39 50 202 212 233 247 241 258 240 271 277 276 14 270 268 262 234 201 178 177 180 184 190 197 208 198 195 186 178 174 173 173 171 169 169 169 166 164 162 158 157 153 150 149 148 144 142 141 138
25 83 210 234 232 243 249 240 242 249 265 270 272 223 251 279 219 188 179 178 184 186 190 198 198 195 186 186 182 178 173 172 172 172 172 173 170 167 165 161 159 157 155 152 150 149 146 140 142
153 135 231 248 246 254 246 225 234 260 257 255 241 264 268 304 256 195 178 181 187 190 192 187 187 192 181 185 184 181 178 177 176 176 175 176 173 170 167 164 163 163 161 156 155 155 153 147 144
138 147 250 218 243 269 250 235 213 184 254 219 188 232 268 235 197 193 190 184 188 190 191 183 184 187 179 181 187 184 182 180 180 179 178 178 175 172 170 168 167 166 164 161 160 160 159 157 152
144 242 249 231 232 231 254 181 239 236 221 235 244 245 236 290 187 181 188 188 187 192 195 188 181 184 178 180 185 185 185 184 183 181 180 178 176 173 172 172 171 168 168 166 164 164 163 163 160
181 229 243 228 233 260 270 235 276 270 221 278 288 280 328 166 171 163 185 203 202 196 201 193 184 187 178 181 183 185 184 186 186 184 180 180 177 175 175 174 171 170 170 170 168 168 167 168 163
218 240 244 259 272 266 266 264 233 261 265 256 267 280 195 179 174 179 203 207 203 198 198 200 190 189 182 181 183 182 181 183 187 186 182 183 180 176 174 172 171 171 173 172 172 172 174 174 171
248 242 256 266 268 271 268 271 261 242 251 264 268 239 225 201 196 204 208 213 202 197 199 200 195 194 188 183 179 183 182 183 182 188 186 185 181 179 177 175 178 176 179 177 178 177 177 177 175
236 252 257 261 261 264 274 262 268 258 261 258 258 268 269 236 210 214 217 217 213 201 197 199 196 193 192 190 184 183 185 186 185 184 188 189 181 178 180 181 184 181 182 183 182 180 180 180 179
289 282 266 265 267 274 276 276 265 263 244 254 243 243 255 246 214 218 217 220 211 214 202 198 198 191 191 192 193 191 184 188 186 187 188 191 185 183 183 183 186 186 186 185 184 184 183 183 183
256 260 270 262 225 218 248 279 252 265 263 256 243 237 242 237 220 208 213 218 216 215 212 198 198 193 192 194 196 195 196 185 188 190 191 192 187 188 187 186 186 189 189 188 187 188 185 184 185
261 265 259 271 246 243 185 259 269 256 251 246 245 244 243 240 210 211 213 218 221 220 206 213 201 196 196 196 196 198 197 194 189 190 191 193 192 192 189 188 187 189 188 192 189 189 185 187 187
255 264 257 265 254 245 203 252 262 252 249 253 239 238 243 245 231 217 210 218 227 225 215 211 206 200 198 199 200 198 198 197 197 191 192 195 195 197 191 186 185 189 189 194 193 194 192 188 187
271 262 262 258 264 240 241 252 264 267 261 262 250 245 247 245 238 230 225 211 218 221 218 218 209 205 205 201 200 201 200 198 197 197 195 194 196 197 191 190 188 188 189 193 197 196 195 193 188
300 297 291 271 278 264 252 261 255 258 255 258 255 253 254 240 228 225 224 224 214 218 215 215 207 207 201 200 193 195 196 200 197 201 199 198 196 196 196 191 188 188 193 195 194 192 189 187 186
278 274 275 289 285 268 271 273 272 265 258 256 255 248 245 242 215 218 226 226 226 219 219 212 209 204 201 200 197 201 199 201 199 201 202 199 197 197 196 196 193 190 189 192 194 191 177 180 188
273 276 280 275 281 284 290 277 267 262 261 258 256 249 246 246 249 246 242 234 235 229 227 225 215 205 200 199 194 200 200 199 200 201 196 196 197 199 199 197 192 192 192 193 194 191 187 179 185
275 270 266 270 265 257 278 275 263 267 267 251 251 246 244 245 246 243 241 242 234 230 233 224 215 206 199 193 189 193 193 193 200 197 198 200 203 200 197 197 195 195 194 194 196 195 194 185 182
267 280 271 268 258 259 253 263 268 297 284 273 253 244 236 235 238 237 238 243 242 228 227 227 211 200 195 191 188 191 197 202 200 198 199 199 201 200 192 194 195 196 198 200 195 193 196 196 190
271 285 290 250 251 241 245 249 257 259 332 295 33 36 24 20 15 2 349 42 17 255 222 210 193 192 193 190 190 193 195 196 195 199 198 201 194 198 193 195 195 199 199 199 200 201 199 198 199
248 313 282 225 202 236 235 238 255 132 47 47 54 47 37 39 36 33 29 23 17 24 70 191 185 182 189 189 190 196 200 198 199 198 197 195 192 196 191 194 194 198 202 203 201 200 202 200 199
293 248 271 257 226 261 232 229 236 98 107 81 67 60 53 50 44 45 35 31 29 31 43 67 125 159 184 191 192 195 197 200 202 202 198 195 195 199 193 195 199 201 201 200 203 203 204 201 206
322 265 277 260 256 338 266 119 69 67 72 86 71 54 53 47 46 41 41 37 41 38 43 51 61 63 97 175 197 196 199 197 197 201 200 195 190 188 185 195 198 200 199 200 204 202 203 201 205
253 303 316 292 160 254 252 46 56 19 30 66 63 57 45 45 46 42 40 34 40 45 45 49 50 53 52 70 99 152 191 200 206 202 209 199 196 195 188 195 201 205 205 204 207 206 206 203 206
325 320 320 268 259 164 123 28 360 31 35 41 54 53 45 41 46 40 39 39 37 42 41 45 44 48 43 45 56 72 86 98 150 161 172 174 175 176 186 198 205 217 212 206 204 207 206 203 206
331 320 307 284 323 344 118 75 11 41 66 60 47 44 61 50 49 32 35 34 34 33 38 38 36 39 49 50 47 53 63 64 68 79 95 116 129 157 181 195 195 191 204 210 210 210 204 203 208
Height
783 782 782 783 811 821 821 804 785 777 769 755 750 755 758 751 760 778 738 741 743 745 747 751 754 758 761 763 766 769 773 776 779 785 791 791 792 795 797 803 806 809 813 817 821 824 826 828 830
781 782 783 795 823 830 813 791 783 769 756 753 747 749 753 754 740 740 741 740 742 745 748 750 753 757 761 764 765 768 772 776 779 784 790 792 794 797 799 804 808 811 814 817 821 825 828 830 832
781 781 791 807 828 824 811 782 773 761 754 755 754 746 747 746 736 736 735 738 742 745 748 750 752 754 759 762 765 767 771 776 780 784 790 793 795 798 801 805 808 812 815 819 822 826 829 832 834
782 784 796 812 815 801 789 778 774 766 755 752 753 760 744 733 733 730 731 735 739 742 745 749 752 753 757 763 765 768 771 776 780 785 790 794 797 800 803 805 809 812 815 820 823 825 830 834 835
785 793 806 812 804 790 780 770 767 770 764 758 755 759 750 732 730 729 729 732 736 740 743 746 750 752 756 762 764 769 772 775 780 785 791 795 797 800 804 806 811 814 816 819 823 826 830 836 837
792 799 815 807 795 778 770 761 762 760 758 755 755 754 745 731 731 729 730 733 737 739 743 745 748 753 756 761 764 769 773 776 780 784 790 795 798 801 805 807 811 814 818 819 824 828 831 836 840
794 805 805 795 792 780 757 753 758 755 756 754 744 751 741 733 733 734 732 736 738 740 742 743 748 752 754 759 764 769 773 776 781 785 789 795 798 801 805 807 811 815 818 821 825 829 832 835 840
788 796 796 794 778 761 751 750 743 749 748 736 737 750 744 733 732 737 737 736 738 741 743 743 748 752 753 758 764 769 773 777 781 785 789 795 798 801 805 808 811 815 820 823 825 830 834 837 839
780 796 770 779 770 753 745 748 742 736 739 736 731 730 729 730 731 735 740 739 738 740 744 746 747 753 752 757 764 770 774 777 782 786 790 795 799 801 805 808 811 814 820 824 827 831 835 839 840
781 782 754 746 747 748 747 744 746 744 742 744 739 730 727 728 728 733 737 739 738 737 744 746 746 752 753 755 761 768 774 778 781 785 789 794 798 801 804 808 811 815 820 825 828 832 835 839 841
767 752 741 736 745 745 748 747 742 744 741 736 738 733 728 730 728 729 733 736 731 734 738 744 744 749 752 751 757 765 771 776 780 783 787 792 797 801 804 808 812 816 820 824 828 831 835 838 841
763 743 745 737 741 743 745 742 735 736 728 726 726 727 727 728 729 728 728 731 732 729 730 738 741 747 749 752 752 759 765 771 775 780 785 789 794 799 803 806 810 814 819 822 826 830 835 838 841
754 747 738 733 734 737 739 735 732 709 720 721 721 720 721 724 723 721 721 724 726 726 728 730 736 739 746 749 752 753 760 766 771 776 781 786 791 796 800 804 808 811 816 820 825 829 833 837 841
748 748 736 731 732 736 741 727 735 684 714 711 712 710 707 712 715 715 715 718 723 721 721 724 729 731 738 743 747 750 750 759 767 772 776 781 786 792 797 800 805 809 813 818 822 827 832 836 840
740 744 731 713 730 736 737 716 701 695 708 700 702 697 696 695 702 703 703 706 710 712 712 717 722 727 730 736 741 746 750 750 758 764 771 776 781 785 790 795 799 806 813 817 821 827 832 836 840
744 740 734 707 719 715 734 702 653 687 690 686 690 688 684 680 683 688 691 696 701 704 706 710 715 718 723 728 733 739 743 748 749 757 763 769 775 780 785 791 796 802 810 814 818 824 830 834 838
730 730 727 715 703 721 718 687 665 681 686 680 682 680 676 674 678 676 680 685 690 693 697 701 706 710 714 718 725 730 736 742 746 749 755 761 768 773 779 784 791 797 803 811 815 820 826 832 837
725 725 713 707 690 708 700 677 680 669 679 679 676 673 671 668 667 668 667 669 678 682 687 691 696 701 708 711 718 726 731 735 741 745 748 754 760 767 773 779 784 792 800 806 810 815 823 830 835
753 741 724 703 701 703 688 678 669 666 671 669 669 666 662 659 658 659 660 662 668 672 676 682 687 691 699 706 709 718 721 729 733 738 742 748 754 761 767 774 780 787 793 796 801 809 817 827 832
730 728 719 723 708 702 697 677 666 664 657 656 656 655 652 653 655 653 654 655 657 662 666 670 675 679 685 692 695 704 711 717 722 727 734 740 748 752 759 766 773 780 786 792 797 803 811 820 826
732 729 721 710 701 706 703 676 648 643 646 646 640 641 641 641 643 644 643 643 646 649 655 658 662 666 671 678 686 697 707 714 718 722 726 732 737 742 750 757 764 772 780 784 792 796 800 808 819
728 719 710 705 706 693 686 665 651 639 633 637 630 630 630 631 631 631 630 630 634 638 641 644 649 654 659 668 674 683 689 697 704 710 717 723 730 734 743 748 755 762 771 778 781 790 795 801 804
714 707 705 700 697 689 679 679 640 639 635 625 617 615 616 616 617 616 616 619 622 627 631 633 637 643 650 658 661 671 681 688 694 701 707 714 720 725 731 739 747 754 764 772 775 782 788 792 799
705 704 688 689 687 682 661 668 646 641 637 626 626 640 637 635 633 629 622 623 623 623 622 624 629 635 646 651 655 662 668 678 686 692 699 706 711 719 725 732 739 745 754 761 767 774 780 785 793
702 705 686 680 680 668 638 653 644 635 646 647 653 649 647 642 640 637 636 633 630 625 620 618 624 631 641 644 650 658 666 673 678 683 690 697 703 711 715 723 730 737 743 752 758 764 770 776 782
706 704 686 689 718 648 634 636 626 639 650 646 654 655 648 648 646 646 645 642 637 633 626 621 625 630 635 642 646 653 659 666 672 678 684 688 694 701 707 715 723 730 738 744 751 758 763 769 776
695 688 675 666 658 670 628 632 651 653 650 651 657 659 659 655 652 653 650 650 646 642 637 633 631 632 634 638 646 650 656 660 666 671 677 681 689 695 701 711 718 726 732 738 743 749 755 760 765
706 695 680 661 676 716 626 626 659 662 664 658 664 668 667 660 660 660 658 661 655 649 647 641 641 642 642 642 645 647 654 659 664 667 671 674 679 683 693 705 713 721 728 732 738 743 747 753 758
702 693 697 679 662 666 670 670 677 674 675 676 677 681 675 680 673 670 671 668 664 660 656 653 652 650 652 652 653 652 656 658 662 666 669 671 675 682 689 697 700 709 721 726 730 734 739 744 751
704 704 701 673 656 666 700 680 691 685 683 689 690 688 691 693 682 684 679 678 674 671 668 666 667 666 666 666 666 663 660 666 665 669 670 670 673 681 683 693 700 705 709 713 722 728 731 736 744